Find Starlink 33742

NORAD ID: 63366 Int'l Des: 2025-063 Owner: SPXS Country: US Constellation: starlink operational
LEOCIRCULAR

リアルタイム位置

3D地球を読み込み中...

Starlink 33742について

説明を読み込み中...

次回通過

Passes for default location (London). Set your location on the main map for personalized predictions.

高度履歴

Loading altitude history...

軌道要素

1 63366U 25063D 26121.54350583 .00022765 00000-0 77852-3 0 9999
2 63366 53.1573 166.8194 0001145 81.6711 278.4419 15.30194355 62807
Epoch: May 1, 2026 • Age: 6 hours

現在のステータス

高度 493.9 km
速度 7.62 km/s
衛星直下点 -51.87°S, 50.28°W
打ち上げ日 Mar 26, 2025
運用期間 1 years
タイプ internet

技術仕様

分類 Payload
質量 575.00 kg
乾燥質量 530.00 kg
総質量 575.00 kg
長さ 0.30 m
直径 4.10 m
スパン 29.00 m
形状 Box + pan
製造者 SPXS
バスタイプ Starlink V2MO
フェーズステータス In Orbit
所有者/国 SPXS/US

Most Searched